Virtual Norwegian is not affiliated with Norwegian Air Shuttle in any way.
If you are looking for the real "Norwegian", or you wish to book Norwegian flights, please visit Norwegian.com


We use cookies to ensure you get the best experience on our website.   ACCEPT

ENBR - BGO - Bergen (Flesland)

General Info Alternate Airport
ICAO: ENBR Elevation: 170 ft ICAO: ENZV
IATA: BGO Country: Norway IATA: SVG
City: Bergen Charts: Log in to view charts City: Stavanger
Name: Flesland Hub: Yes Name Sola
General Info
ICAO: ENBR
IATA: BGO
City: Bergen
Name: Flesland
Elevation: 170 ft
Country: Norway
Charts: Log in to view charts
Hub: Yes
 
Alternate Airport
ICAO: ENZV
IATA: SVG
City: Stavanger
Name: Sola

Weather
151020Z 15011KT 120V180 9999 FEW011 SCT018 BKN040 17/14 Q1008 TEMPO 4000 RADZ BR SCT007 BKN012 RMK WIND 1200FT 15019KT
Weather
151020Z 15011KT 120V180 9999 FEW011 SCT018 BKN040 17/14 Q1008 TEMPO 4000 RADZ BR SCT007 BKN012 RMK WIND 1200FT 15019KT

Runway Info
17
Length ILS/LOC Course
2990 m 109.90 171
35
Length ILS/LOC Course
2990 m 110.50 351

NOTAMs
NOTAMs currently unavailable.
NOTAMs
NOTAMs currently unavailable

Route map
Airport
Airport (hub)